This demonstration page uses our WeatherBlox Daily Observations layout. Learn more.

Left ArrowRight Arrow

Hourly Observations for September 3, 2015

Temp ( °F °C ) Dew Point ( °F °C ) Humidity (%) Winds ( mph kmh ) Pressure ( in mb ) Visibility ( mi km ) Precip ( " mm )
12:51 am 00:51 Clear 72 22.2 59 15 64 64 SE 9 15 29.86 1011 10 16.0934 0 0
1:51 am 01:51 Mostly Clear 69 20.6 61 16.1 76 76 S 8 13 29.86 1011 10 16.0934 0 0
2:51 am 02:51 Clear 69 20.6 62 16.7 78 78 E 8 13 29.87 1012 10 16.0934 0 0
3:51 am 03:51 Clear 71 21.7 58 14.4 63 63 E 10 17 29.86 1011 10 16.0934 0 0
4:51 am 04:51 Clear 72 22.2 57 13.9 59 59 ESE 9 15 29.86 1011 10 16.0934 0 0
5:51 am 05:51 Clear 71 21.7 57 13.9 61 61 ESE 8 13 29.88 1012 10 16.0934 0 0
6:51 am 06:51 Sunny 68 20 61 16.1 78 78 NW 3 6 29.91 1013 10 16.0934 0 0
7:51 am 07:51 Mostly Sunny 71 21.7 60 15.6 68 68 Calm 29.91 1013 10 16.0934 0 0
8:51 am 08:51 Sunny 77 25 58 14.4 52 52 NNE 3 6 29.91 1013 10 16.0934 0 0
9:51 am 09:51 Sunny 79 26.1 58 14.4 49 49 SSE 8 13 29.92 1013 10 16.0934 0 0
10:51 am 10:51 Sunny 80 26.7 60 15.6 51 51 SSE 8 13 29.9 1013 10 16.0934 0 0
11:51 am 11:51 Sunny 81 27.2 58 14.4 45 45 VRB 3 6 29.85 1011 10 16.0934 0 0
12:51 pm 12:51 Sunny 84 28.9 57 13.9 40 40 Calm 29.83 1010 10 16.0934 0 0
1:51 pm 13:51 Mostly Sunny 85 29.4 58 14.4 40 40 VRB 5 7 29.81 1010 10 16.0934 0 0
2:51 pm 14:51 Sunny 84 28.9 58 14.4 41 41 W 9 15 29.79 1009 10 16.0934 0 0
3:51 pm 15:51 Mostly Cloudy with Light Rain 80 26.7 62 16.7 54 54 WSW 3 6 29.79 1009 10 16.0934 0 0.0254
4:51 pm 16:51 Sunny 80 26.7 60 15.6 51 51 NNW 6 9 29.79 1009 10 16.0934 0 0.0254
5:51 pm 17:51 Sunny 81 27.2 59 15 47 47 E 7 11 29.78 1009 10 16.0934 0 0
6:51 pm 18:51 Clear 76 24.4 60 15.6 58 58 E 12 19 29.82 1010 10 16.0934 0 0
7:51 pm 19:51 Mostly Clear 76 24.4 58 14.4 54 54 ENE 13 20 29.83 1010 10 16.0934 0 0
8:51 pm 20:51 Cloudy 76 24.4 57 13.9 52 52 E 8 13 29.82 1010 10 16.0934 0 0
9:51 pm 21:51 Mostly Cloudy with Light Rain 75 23.9 59 15 58 58 S 5 7 29.83 1010 10 16.0934 0 0.0254
10:51 pm 22:51 Clear 73 22.8 59 15 62 62 SSE 9 15 29.82 1010 10 16.0934 0 0.0254
11:51 pm 23:51 Clear 71 21.7 60 15.6 68 68 Calm 29.82 1010 10 16.0934 0 0

Powered by AerisWeather